Location: Banios
(43.0451°N, 0.2335°E)
Time: 07:45:13
(UTC+00:00)

A-11 Canister half - Pass Details

Date: 12 May 2021
Orbit: 1527 x 1681 km, 47.3° (Epoch: 22 June)

Event Time Altitude Azimuth Distance (km) Brightness Sun altitude
Rises 15:41:53 0° 296° (WNW) 4,864 12.3 36.6°
Reaches altitude 10° 15:45:06 10° 291° (WNW) 3,893 12.1 36.0°
Maximum altitude 15:54:35 51° 220° (SW) 2,028 10.8 34.3°
Drops below altitude 10° 16:04:13 10° 149° (SSE) 3,934 11.0 32.6°
Sets 16:07:29 0° 144° (SE) 4,918 11.4 32.0°
